TimeEDT,TemperatureF,Dew PointF,Humidity,Sea Level PressureIn,VisibilityMPH,Wind Direction,Wind SpeedMPH,Gust SpeedMPH,PrecipitationIn,Events,Conditions,WindDirDegrees,DateUTC
12:53 AM,59.0,53.1,81,30.22,10.0,Calm,Calm,-,N/A,,Clear,0,2013-05-15 04:53:00
1:53 AM,57.9,53.1,84,30.21,10.0,Calm,Calm,-,N/A,,Clear,0,2013-05-15 05:53:00
2:53 AM,57.0,53.1,87,30.19,10.0,Calm,Calm,-,N/A,,Clear,0,2013-05-15 06:53:00
3:53 AM,55.9,52.0,87,30.18,10.0,Calm,Calm,-,N/A,,Clear,0,2013-05-15 07:53:00
4:53 AM,57.0,52.0,83,30.18,10.0,Calm,Calm,-,N/A,,Clear,0,2013-05-15 08:53:00
5:53 AM,55.9,51.1,84,30.19,10.0,Calm,Calm,-,N/A,,Clear,0,2013-05-15 09:53:00
6:53 AM,55.9,52.0,87,30.21,10.0,Calm,Calm,-,N/A,,Clear,0,2013-05-15 10:53:00
7:53 AM,63.0,57.9,84,30.22,10.0,Calm,Calm,-,N/A,,Clear,0,2013-05-15 11:53:00
8:53 AM,71.1,57.0,61,30.24,10.0,WSW,3.5,-,N/A,,Clear,250,2013-05-15 12:53:00
9:53 AM,75.0,54.0,48,30.25,10.0,WSW,9.2,-,N/A,,Clear,240,2013-05-15 13:53:00
10:53 AM,77.0,48.0,36,30.24,10.0,Variable,5.8,-,N/A,,Clear,0,2013-05-15 14:53:00
11:53 AM,80.1,51.1,36,30.23,10.0,Variable,4.6,-,N/A,,Clear,0,2013-05-15 15:53:00
12:53 PM,82.0,51.1,34,30.22,10.0,Variable,6.9,-,N/A,,Clear,0,2013-05-15 16:53:00
1:53 PM,82.9,50.0,32,30.19,10.0,Calm,Calm,-,N/A,,Clear,0,2013-05-15 17:53:00
2:53 PM,82.9,54.0,37,30.17,10.0,ESE,9.2,-,N/A,,Clear,110,2013-05-15 18:53:00
3:53 PM,82.0,52.0,35,30.14,10.0,ESE,11.5,-,N/A,,Clear,110,2013-05-15 19:53:00
4:53 PM,82.0,51.1,34,30.12,10.0,ESE,10.4,-,N/A,,Clear,120,2013-05-15 20:53:00
5:53 PM,82.0,48.9,31,30.11,10.0,SE,11.5,-,N/A,,Clear,140,2013-05-15 21:53:00
6:53 PM,79.0,48.9,35,30.10,10.0,SE,12.7,-,N/A,,Clear,140,2013-05-15 22:53:00
7:53 PM,75.0,52.0,44,30.10,10.0,SSE,8.1,-,N/A,,Clear,160,2013-05-15 23:53:00
8:53 PM,72.0,55.0,55,30.11,10.0,SSE,4.6,-,N/A,,Clear,160,2013-05-16 00:53:00
9:53 PM,71.1,59.0,66,30.12,10.0,South,6.9,-,N/A,,Clear,170,2013-05-16 01:53:00
10:53 PM,70.0,60.1,71,30.12,10.0,South,6.9,-,N/A,,Clear,180,2013-05-16 02:53:00
11:53 PM,70.0,57.9,65,30.11,10.0,South,6.9,-,N/A,,Clear,190,2013-05-16 03:53:00